Weather History for Bettles, AK

Change the Weather History Date:

Sunday, October 21, 2012

  Actual Average Record
Temperature  
Mean Temperature 8 °F -  
Max Temperature 15 °F 20 °F 40 °F (1957)
Min Temperature 1 °F 5 °F -25 °F (1958)
Degree Days  
Heating Degree Days 57    
Moisture  
Dew Point 4 °F    
Average Humidity 81    
Maximum Humidity 92    
Minimum Humidity 59    
Precipitation  
Precipitation 0.00 in - - ()
Snow  
Snow 0.00 in - - ()
Snow Depth 1.00 in    
Sea Level Pressure  
Sea Level Pressure 30.61 in    
Wind  
Wind Speed 6 mph (North)    
Max Wind Speed 10 mph    
Max Gust Speed -    
Visibility 10 miles    
Events Snow    
Averages and records for this station are not official NWS values.
T = Trace of Precipitation, MM = Missing Value Source: NWS Daily Summary

Daily Weather History Graph

Daily Weather History Graph

Search for Another Location

Airport:

Trip Planner

Search our weather history database for the weather conditions in past years. The results will help you decide how hot, cold, wet, or windy it might be!

Date:

Astronomy

Oct. 21, 2012 Rise Set
Actual Time 9:29 AM AKDT 6:10 PM AKDT
Civil Twilight 8:33 AM AKDT 7:06 PM AKDT
Nautical Twilight 7:31 AM AKDT 8:08 PM AKDT
Astronomical Twilight 6:29 AM AKDT 9:09 PM AKDT
Moon 4:51 PM AKDT (10/21) 11:30 PM AKDT (10/21)
Length of Visible Light 10h 33m
Length of Day
8h 40m
Waxing Crescent, 47% of the Moon is Illuminated
Oct 21
Waxing Crescent
Oct 21
First Quarter
Oct 29
Full
Nov 6
Last Quarter
Nov 13
New

Hourly Weather History & Observations

Time (AKDT) Temp. Windchill Dew Point Humidity Pressure Visibility Wind Dir Wind Speed Gust Speed Precip Events Conditions
12:53 AM 12.9 °F 3.8 °F 10.0 °F 88% 30.67 in 10.0 mi NE 5.8 mph - 0.00 in Snow Light Snow
2:53 AM 10.0 °F -0.9 °F 8.1 °F 92% 30.67 in 9.0 mi NNE 6.9 mph - 0.00 in Snow Light Snow
3:53 AM 9.0 °F -2.2 °F 7.0 °F 92% 30.67 in 10.0 mi NNE 6.9 mph - 0.00 in Snow Light Snow
4:53 AM 9.0 °F -5.1 °F 7.0 °F 92% 30.66 in 8.0 mi NNE 10.4 mph - 0.00 in Snow Light Snow
5:53 AM 8.1 °F -2.0 °F 6.1 °F 92% 30.68 in 10.0 mi North 5.8 mph - 0.00 in Snow Light Snow
6:03 AM 8.6 °F 0.1 °F 6.8 °F 92% 30.61 in 10.0 mi North 4.6 mph - 0.00 in Snow Light Snow
6:53 AM 7.0 °F -4.5 °F 3.9 °F 87% 30.67 in 10.0 mi North 6.9 mph - 0.00 in Snow Light Snow
7:53 AM 5.0 °F -2.1 °F 1.9 °F 87% 30.66 in 10.0 mi North 3.5 mph - 0.00 in   Overcast
8:53 AM 3.9 °F -5.3 °F 1.0 °F 88% 30.66 in 10.0 mi North 4.6 mph - N/A   Mostly Cloudy
9:33 AM 3.2 °F -9.1 °F -0.4 °F 85% 30.59 in 10.0 mi North 6.9 mph - N/A   Scattered Clouds
9:53 AM 1.9 °F -9.2 °F -0.9 °F 88% 30.66 in 10.0 mi NNW 5.8 mph - N/A   Scattered Clouds
10:53 AM 3.9 °F -5.3 °F -0.0 °F 84% 30.66 in 10.0 mi North 4.6 mph - N/A   Partly Cloudy
11:53 AM 6.1 °F -4.3 °F 1.9 °F 83% 30.65 in 10.0 mi North 5.8 mph - N/A   Partly Cloudy
12:53 PM 9.0 °F 0.6 °F 3.0 °F 77% 30.64 in 10.0 mi North 4.6 mph - N/A   Partly Cloudy
1:53 PM 10.9 °F 1.4 °F 5.0 °F 77% 30.63 in 10.0 mi North 5.8 mph - N/A   Partly Cloudy
2:53 PM 12.9 °F 1.6 °F 6.1 °F 74% 30.61 in 10.0 mi NNE 8.1 mph - N/A   Partly Cloudy
3:53 PM 15.1 °F 6.4 °F 7.0 °F 70% 30.59 in 10.0 mi NE 5.8 mph - N/A   Partly Cloudy
4:53 PM 15.1 °F 6.4 °F 7.0 °F 70% 30.58 in 10.0 mi NNE 5.8 mph - N/A   Partly Cloudy
5:53 PM 14.0 °F 5.1 °F 7.0 °F 74% 30.56 in 10.0 mi North 5.8 mph - N/A   Partly Cloudy
6:53 PM 10.9 °F 1.4 °F 5.0 °F 77% 30.55 in 10.0 mi North 5.8 mph - N/A   Partly Cloudy
7:53 PM 10.9 °F 1.4 °F 5.0 °F 77% 30.55 in 10.0 mi North 5.8 mph - N/A   Clear
8:53 PM 9.0 °F -0.9 °F 3.9 °F 80% 30.54 in 10.0 mi North 5.8 mph - N/A   Clear
9:53 PM 10.0 °F -2.9 °F 3.9 °F 76% 30.53 in 10.0 mi North 9.2 mph - N/A   Clear
10:53 PM 8.1 °F -3.2 °F 3.0 °F 80% 30.53 in 10.0 mi North 6.9 mph - N/A   Clear
11:53 PM 8.1 °F -3.2 °F 3.0 °F 80% 30.53 in 10.0 mi North 6.9 mph - N/A   Clear